Weather Service Report


200 
ASUS44 KLIX 301611
RWRLIX
NEW ORLEANS REGIONAL WEATHER ROUNDUP
NATIONAL WEATHER SERVICE NEW ORLEANS LA
1100 AM CDT SAT JUL 30 2016

NOTE: "FAIR" INDICATES FEW OR NO CLOUDS BELOW 12,000 FEET WITH NO
      SIGNIFICANT WEATHER AND/OR OBSTRUCTIONS TO VISIBILITY.
      SKY/WX - SKY CONDITION AND SIGNIFICANT WEATHER.
      TMP - AIR TEMPERATURE.     DP    - DEWPOINT TEMPERATURE.
      RH  - RELATIVE HUMIDITY.   PRES  - PRESSURE.
      HI  - HEAT INDEX.          WCI   - WIND CHILL INDEX.

*  THESE STATIONS ARE NOT NWS OR FAA STATIONS AND ARE NOT UNDER
   NWS QUALITY CONTROL. 

LAZ038-040-048-061>063-065>067-069-301700-
SOUTHEAST LOUISIANA
  
CITY           SKY/WX    TMP DP  RH WIND       PRES   REMARKS
N.O. AUDUBON     N/A     94  78  60 MISG        N/A  HX 109           
N.O. INTL ARPT MOSUNNY   91  74  57 W7        30.06R HX 100           
N.O. LAKEFRONT SUNNY     88  76  67 NW8       30.07R HX  99           
N.O. DOWNTOWN* PTSUNNY   88  76  67 NW7       30.07S HX  99           
RESERVE*         N/A     91  76  61 NW3       30.06S HX 103           
SLIDELL        MOSUNNY   89  78  70 N5        30.06R HX 103           
BATON ROUGE    PTSUNNY   88  73  61 VRB5      30.06S HX  95           
BOOTHVILLE     SUNNY     88  75  65 SW9       30.07S HX  97           
BELLE CHASSE   MOSUNNY   89  75  63 W7        30.06R HX  99           
BOGALUSA*        N/A     89  74  60 NW5       30.08S HX  98           
GALLIANO*      PTSUNNY   90  76  63 W7        30.06R HX 102           
NEW ROADS*       N/A     88  77  69 NW3       30.06S HX  99           
GONZALES*      CLOUDY    86  76  71 NW3       30.05S HX  95           
HAMMOND*       MOSUNNY   90  73  58 NW6       30.06S HX  98           
HOUMA*         MOSUNNY   84  75  74 SW7       30.06R                  
PORT FOURCHON* NOT AVBL                                               

$$

MSZ070-080>082-301700-
SOUTHERN MISSISSIPPI
  
CITY           SKY/WX    TMP DP  RH WIND       PRES   REMARKS
MCCOMB         PTSUNNY   86  74  67 NW8       30.07S                  
GULFPORT       MOSUNNY   89  74  60 NW8       30.06R HX  98           
BILOXI         MOSUNNY   89  76  65 VRB6      30.06R HX 101           
PASCAGOULA     MOSUNNY   90  77  65 VRB3      30.06R HX 103           
STENNIS ARPT*  PTSUNNY   90  70  51 VRB5      30.06S HX  95           

$$

COASTAL OBSERVATIONS
LAKE AND NEARSHORE STATIONS
  
STATION/POSITION TIME  TEMP    WIND        PRES    WAVE
                       AIR SEA DIR/SP/G            HT/PER
                 (UTC) (F)     (DEG/KT/KT) (MB)    (FT/S)
PASCAGOULA       1500   88     290/  7/ 10 1017.4
WAVELAND YACHT   1500   85 87  320/  8/ 10 1017.9
GRAND ISLE       1500   85 88  260/  5/  6 1017.9
SOUTHWEST PASS   1500          240/  4/  5   N/A
NEW CANAL        1500   87 87  320/  2/  6 1017.2
SHELL BEACH      1500   85 88  300/  7/  8 1018.0

OFFSHORE STATIONS
  
STATION/POSITION TIME  TEMP    WIND        PRES    WAVE
                       AIR SEA DIR/SP/G            HT/PER
                 (UTC) (F)     (DEG/KT/KT) (MB)    (FT/S)
64 S DAUPHIN ISL 1500   85 89  280/  6/  8 1017.9

$$

  


201 
ASUS44 KLIX 301611
RWRLA 
LOUISIANA WEATHER ROUNDUP
NATIONAL WEATHER SERVICE NEW ORLEANS LA
1100 AM CDT SAT JUL 30 2016

NOTE: "FAIR" INDICATES FEW OR NO CLOUDS BELOW 12,000 FEET WITH NO
      SIGNIFICANT WEATHER AND/OR OBSTRUCTIONS TO VISIBILITY.
      SKY/WX - SKY CONDITION AND SIGNIFICANT WEATHER.
      TMP - AIR TEMPERATURE.    DP   - DEWPOINT TEMPERATURE.
      RH  - RELATIVE HUMIDITY.  PRES - PRESSURE.
      HX  - HEAT INDEX.         WCI  - WIND CHILL INDEX.

*  THESE STATIONS ARE NOT NWS OR FAA STATIONS AND ARE NOT UNDER
   NWS QUALITY CONTROL.

LAZ040-048-061>063-065-066-069-301700-
SOUTHEAST LOUISIANA
  
CITY           SKY/WX    TMP DP  RH WIND       PRES   REMARKS
N.O. AUDUBON     N/A     94  78  60 MISG        N/A  HX 109           
N.O. INTL ARPT MOSUNNY   91  74  57 W7        30.06R HX 100           
N.O. LAKEFRONT SUNNY     88  76  67 NW8       30.07R HX  99           
N.O. DOWNTOWN* PTSUNNY   88  76  67 NW7       30.07S HX  99           
RESERVE*       FAIR      91  76  61 NW3       30.06S HX 103           
SLIDELL        MOSUNNY   89  78  70 N5        30.06R HX 103           
BATON ROUGE    PTSUNNY   88  73  61 VRB5      30.06S HX  95           
BOOTHVILLE     SUNNY     88  75  65 SW9       30.07S HX  97           
BELLE CHASSE   MOSUNNY   89  75  63 W7        30.06R HX  99           
BOGALUSA*      FAIR      89  74  60 NW5       30.08S HX  98           
GALLIANO*      PTSUNNY   90  76  63 W7        30.06R HX 102           
NEW ROADS*     FAIR      88  77  69 NW3       30.06S HX  99           
GONZALES*      CLOUDY    86  76  71 NW3       30.05S HX  95           
HAMMOND*       MOSUNNY   90  73  58 NW6       30.06S HX  98           
HOUMA*         MOSUNNY   84  75  74 SW7       30.06R                  
PORT FOURCHON* NOT AVBL                                               

$$

LAZ041-044-053-054-301700-
SOUTHWEST LOUISIANA
  
CITY           SKY/WX    TMP DP  RH WIND       PRES   REMARKS
LAKE CHARLES   SUNNY     89  73  59 W5        30.04S HX  97           
LAFAYETTE      MOSUNNY   90  75  61 N5        30.05S HX 100           
PATTERSON      MOSUNNY   88  76  67 W6        30.06S HX  99           
SALT POINT       N/A     88  76  67 VRB3      30.04R HX  99           
NEW IBERIA     MOSUNNY   88  75  65 W3        30.06S HX  97           
CHENAULT AIRPK MOSUNNY   86  75  70 VRB3      30.03F HX  95           

$$

LAZ027-028-301700-
CENTRAL LOUISIANA
  
CITY           SKY/WX    TMP DP  RH WIND       PRES   REMARKS
FORT POLK      MOSUNNY   87  75  66 VRB6      30.04S HX  97           
ALEXANDRIA INT SUNNY     88  76  67 W7        30.03S HX  99           
ALEXANDRIA     SUNNY     88  76  67 SW5       30.05S HX  99           

$$

LAZ001-002-301700-
NORTHWEST LOUISIANA
  
CITY           SKY/WX    TMP DP  RH WIND       PRES   REMARKS
SHREVEPORT     MOSUNNY   89  74  60 W13       30.02S HX  98           
BARKSDALE AFB  SUNNY     89  72  57 W7        30.02F HX  96           
DTN SHREVEPORT SUNNY     89  73  59 SW10      30.02F HX  97           

$$

LAZ014-016-301700-
NORTHEAST LOUISIANA
  
CITY           SKY/WX    TMP DP  RH WIND       PRES   REMARKS
MONROE         SUNNY     89  75  63 W9        30.04S HX  99           
TALLULAH       MOSUNNY   90  77  65 W7        30.04S HX 103           

$$

  

Return to Home page


Western Regional Climate Center, wrcc@dri.edu